Date,TemperatureHighF,TemperatureAvgF,TemperatureLowF,DewpointHighF,DewpointAvgF,DewpointLowF,HumidityHigh,HumidityAvg,HumidityLow,PressureMaxIn,PressureMinIn,WindSpeedMaxMPH,WindSpeedAvgMPH,GustSpeedMaxMPH,PrecipitationSumIn
2013-3-1,35.9,27.3,15.4,25.7,21.4,11.7,96,79,54,30.15,29.98,8,1,8,0.07
2013-3-2,34.7,17.1,4.7,23.0,11.5,2.6,94,80,56,30.17,30.07,5,0,5,0.00
2013-3-3,33.8,19.1,0.8,19.5,11.7,-1.7,92,75,45,30.08,29.90,10,2,10,0.00
2013-3-4,32.4,27.3,22.9,27.0,23.5,17.4,95,86,71,29.93,29.75,21,7,22,0.01
2013-3-5,34.4,29.2,24.4,29.5,26.4,21.6,97,89,78,30.06,29.78,13,1,13,0.19
2013-3-6,34.6,21.4,2.9,23.7,17.2,0.5,93,84,62,30.24,30.06,9,1,9,0.02
2013-3-7,31.5,16.3,-2.0,25.3,12.6,-4.7,94,86,74,30.30,30.22,10,2,10,0.04
2013-3-8,42.1,30.3,17.0,33.1,26.3,15.0,95,85,69,30.26,30.04,17,5,17,0.01
2013-3-9,40.1,37.1,34.0,40.0,36.1,31.9,100,96,89,30.04,29.55,17,5,17,1.17
2013-3-10,39.6,36.6,34.1,39.6,36.6,34.1,100,100,99,29.59,29.39,7,0,7,0.65
2013-3-11,34.2,31.5,27.0,34.2,30.2,24.3,100,95,86,29.75,29.47,12,1,12,0.00
2013-3-12,37.9,27.9,23.1,31.2,24.1,19.1,92,86,71,30.02,29.75,14,3,15,0.00
2013-3-13,38.4,26.9,18.2,25.3,19.5,15.2,91,75,52,30.26,30.02,11,1,11,0.01
2013-3-14,51.2,33.8,20.0,36.5,27.3,17.6,96,78,53,30.21,29.92,17,2,18,0.00
2013-3-15,46.4,35.2,26.7,40.5,32.9,26.0,99,92,78,29.92,29.59,12,1,12,0.00
2013-3-16,35.9,32.2,26.3,33.6,29.6,22.3,99,90,82,30.04,29.62,14,1,15,0.00
2013-3-17,36.6,29.5,22.9,28.2,23.4,17.7,88,78,63,30.06,29.77,17,5,17,0.00
2013-3-18,33.6,27.4,17.4,32.5,24.3,11.4,97,88,77,29.78,29.53,23,5,23,0.02
2013-3-19,31.7,21.5,12.6,22.0,15.0,7.6,87,76,61,30.06,29.76,17,4,18,0.04
2013-3-20,28.1,18.8,11.4,17.4,11.2,5.6,81,72,59,30.11,29.99,14,2,16,0.01
2013-3-21,36.6,21.2,5.9,23.0,13.6,3.6,93,74,48,30.01,29.89,6,0,7,0.00
2013-3-22,44.7,28.6,12.9,27.4,20.5,11.5,96,74,41,29.95,29.88,5,0,6,0.00
2013-3-23,47.1,34.2,22.2,30.5,26.1,20.9,97,74,44,29.98,29.87,7,0,8,0.00
2013-3-24,33.4,30.4,28.0,30.6,28.8,27.0,97,94,87,29.91,29.67,10,1,10,0.08
2013-3-25,39.9,32.0,27.6,31.6,27.3,22.9,96,83,69,30.05,29.75,14,2,14,0.05
2013-3-26,46.2,33.2,25.5,35.2,28.0,23.8,94,82,57,30.17,30.05,10,1,10,0.00
2013-3-27,50.0,35.2,23.0,35.2,27.2,22.3,99,76,43,30.22,30.14,7,0,7,0.00
2013-3-28,54.7,37.5,22.6,38.1,30.0,21.9,98,77,49,30.22,30.11,9,1,9,0.00
2013-3-29,59.9,42.6,26.3,41.6,33.7,25.5,99,74,41,30.16,30.03,10,1,10,0.00
2013-3-30,52.5,45.2,38.0,46.9,40.5,32.1,99,84,72,30.03,29.71,15,3,16,0.04
2013-3-31,53.7,40.1,30.9,45.4,34.8,24.4,100,83,55,29.88,29.69,14,2,16,0.00